[[{"header":{"parameterUnit":"m.s-1","parameterCategory":1,"la1":30.2991,"la2":30.254,"lo1":-89.0895,"lo2":-89.0444,"dy":0.0017,"dx":0.0017,"nx":28,"ny":28,"refTime":"2025-01-30T03:00:00:Z","depth":0,"parameterNumber":2,"parameterNumberName":"U-component_of_WINDS"},"data":[0,0,0,0,0,0,0,0,0,0,0,0,0,0,0,0,0,0,0,0,0,0,0,0,0,0,0,0,0,0,0,0,0,0,0,0,0,0,0,0,0,0,0,0,0,0,0,0,0,0,0,0,0,0,0,0,0,0,0.0887,0.0887,0,0.0895,0.0895,0.0895,0.0883,0.0882,0.0882,0.0881,0.089,0.0891,0.0891,0,0,0,0,0,0,0,0,0,0,0,0,0,0.0861,0.0862,0.0887,0.0887,0.0887,0.0895,0.0895,0.0895,0.0883,0.0882,0.0882,0.0881,0.089,0.0891,0.0891,0,0,0,0,0,0,0,0,0,0,0,0,0,0.0871,0.0862,0.0887,0.0882,0.0882,0.0895,0.0895,0.0895,0.0883,0.0882,0.0881,0.0881,0.089,0.089,0.0891,0.0911,0,0,0.0894,0.0895,0,0,0,0,0,0,0,0,0.0871,0.0872,0.0883,0.0882,0.0882,0.0887,0.0889,0.0901,0.0883,0.0882,0.0881,0.088,0.089,0.0891,0.0894,0.0911,0.0911,0.0894,0.0895,0.0895,0.0896,0,0,0,0,0,0,0,0.087,0.0872,0.089,0.0883,0.0882,0.0879,0.088,0.0891,0.089,0.0882,0.0881,0.0882,0.0889,0.0893,0.0894,0.0912,0.0894,0.0895,0.0896,0.0896,0.0945,0.0946,0,0,0,0,0,0,0.087,0.0871,0.089,0.0891,0.0875,0.088,0.0881,0.0886,0.0889,0.0889,0.0883,0.0882,0.0891,0.0893,0.0894,0.0917,0.0895,0.0896,0.0897,0.0945,0.0946,0.0946,0,0,0,0,0,0,0.087,0.0872,0.089,0.0881,0.0883,0.0881,0.0887,0.0887,0.089,0.089,0.089,0.0887,0.0891,0.0893,0.0907,0.0917,0.0897,0.0898,0.0944,0.0945,0.0946,0.0963,0,0,0,0,0,0,0.0869,0.0872,0.0879,0.0881,0.0883,0.0902,0.0888,0.0887,0.0892,0.089,0.0893,0.0893,0.089,0.0905,0.0908,0.0918,0.0898,0.0943,0.0944,0.0946,0.0962,0.0965,0.0967,0,0,0,0,0,0.0868,0.0883,0.0879,0.0882,0.0892,0.0903,0.0904,0.09,0.0892,0.09,0.09,0.0893,0.0915,0.0907,0.0909,0.092,0.0942,0.0944,0.0946,0.096,0.0964,0.0967,0,0,0,0,0,0,0.0883,0.0884,0.0879,0.0896,0.0899,0.0901,0.091,0.0904,0.0911,0.0909,0.0904,0.0905,0.092,0.0921,0.0912,0.0939,0.0928,0.093,0.0938,0.0941,0.0944,0.0944,0.0899,0,0,0,0,0,0.0888,0.0896,0.0897,0.0911,0.0913,0.0911,0.0916,0.0912,0.0916,0.0918,0.0919,0.0923,0.093,0.0936,0.0943,0.0961,0.0962,0.097,0.0973,0.0975,0.0977,0.0987,0.0991,0.0952,0.0952,0.0952,0,0,0.0899,0.09,0.0906,0.0914,0.0917,0.0926,0.0913,0.0923,0.0929,0.0919,0.0933,0.0934,0.0938,0.0954,0.0961,0.0955,0.0988,0.0977,0.0979,0.098,0.099,0.0993,0.0997,0.0953,0.0953,0.0953,0,0,0.0923,0.0925,0.0938,0.094,0.0944,0.0943,0.0946,0.0948,0.0948,0.0961,0.0954,0.0962,0.0975,0.0979,0.0982,0.1008,0.1002,0.101,0.1025,0.1035,0.1038,0.1041,0.105,0.1054,0.1012,0.1012,0.1012,0,0.0936,0.095,0.0945,0.0955,0.0959,0.095,0.0963,0.0966,0.0972,0.0975,0.0968,0.0985,0.0987,0.1005,0.1011,0.1014,0.1017,0.101,0.1038,0.1041,0.1043,0.1052,0.1056,0.1013,0.1013,0.1013,0.1013,0,0.0966,0.0975,0.0985,0.0991,0.0996,0.1007,0.1005,0.101,0.1006,0.1006,0.1019,0.1021,0.1029,0.1033,0.1029,0.1049,0.1046,0.1039,0.1027,0.1048,0.1056,0.106,0.1015,0.1014,0.1014,0.1014,0,0,0.1,0.1003,0.1007,0.101,0.1013,0.102,0.1032,0.1039,0.1044,0.1048,0.1058,0.1069,0.1063,0.1067,0.1063,0.1072,0.1093,0.1064,0.1064,0.1069,0.1115,0.1121,0.1126,0.1088,0.1089,0.109,0.1115,0,0.1025,0.1045,0.1041,0.106,0.1068,0.106,0.107,0.1073,0.1072,0.108,0.1079,0.1088,0.1078,0.108,0.1088,0.1088,0.1102,0.1086,0.1098,0.1098,0.1098,0.113,0.1136,0.116,0.1119,0.1119,0.1119,0,0.1057,0.1062,0.1082,0.1085,0.1088,0.1097,0.1103,0.111,0.1114,0.1113,0.1117,0.1112,0.1124,0.1111,0.1127,0.1117,0.1121,0.1122,0.1123,0.1124,0.1111,0.1133,0.1168,0.1172,0.1125,0.1124,0.1124,0,0.1081,0.1093,0.1107,0.1109,0.1112,0.1119,0.112,0.1123,0.1128,0.1133,0.1136,0.1143,0.1147,0.1152,0.1149,0.114,0.1166,0.1153,0.1166,0.1166,0.1172,0.1172,0.1209,0.1174,0.1174,0.1173,0.1173,0,0.1109,0.1122,0.1118,0.1126,0.114,0.1135,0.1149,0.115,0.1152,0.1161,0.1154,0.1162,0.1157,0.1165,0.1163,0.1176,0.1178,0.1178,0.1177,0.1179,0.1179,0.1182,0.118,0.1174,0.1174,0.1174,0.1174,0,0.1138,0.1136,0.115,0.1152,0.1152,0.1163,0.1164,0.1172,0.1171,0.1182,0.1184,0.1182,0.1191,0.1189,0.1198,0.1197,0.1214,0.1211,0.1213,0.1212,0.1225,0.1224,0.1266,0.1272,0.1232,0.1233,0.1233,0,0.1157,0.1167,0.1169,0.1174,0.1176,0.1185,0.1189,0.1185,0.119,0.1195,0.1202,0.1211,0.1217,0.1232,0.1231,0.1238,0.1236,0.125,0.1237,0.1238,0.1237,0.1236,0.1238,0.1253,0.1253,0.1254,0.1254,0,0.119,0.1189,0.1196,0.1203,0.1209,0.1214,0.1218,0.1223,0.1219,0.1225,0.1234,0.1239,0.1248,0.1257,0.1263,0.1265,0.1259,0.1258,0.1261,0.1264,0.1265,0.1265,0.1221,0.1257,0.1257,0.1257,0.1257,0.1256,0.1215,0.1223,0.1227,0.1235,0.1238,0.1242,0.125,0.125,0.1257,0.1265,0.1261,0.1272,0.1275,0.1283,0.1286,0.1294,0.1288,0.1293,0.1294,0.1296,0.1298,0.1263,0.1295,0.1295,0.1295,0.1295,0.1295,0,0.1249,0.125,0.1258,0.1264,0.1271,0.1264,0.1269,0.1275,0.1284,0.1288,0.1294,0.1305,0.1313,0.1313,0.132,0.1327,0.1324,0.1329,0.1329,0.1329,0.1302,0.1299,0.1331,0.1331,0.1331,0.1331,0.1331,0.1331,0.1267,0.1281,0.128,0.1295,0.1296,0.1307,0.131,0.1314,0.1317,0.1329,0.1335,0.1335,0.1337,0.1345,0.1352,0.1352,0.1355,0.1361,0.136,0.1335,0.1331,0.1328,0.1325,0.1362,0.1362,0.1387,0.1387,0.1387]},{"header":{"parameterUnit":"m.s-1","parameterCategory":1,"la1":30.2991,"la2":30.254,"lo1":-89.0895,"lo2":-89.0444,"dy":0.0017,"dx":0.0017,"nx":28,"ny":28,"refTime":"2025-01-30T03:00:00:Z","depth":0,"parameterNumber":3,"parameterNumberName":"V-component_of_WINDS"},"data":[0,0,0,0,0,0,0,0,0,0,0,0,0,0,0,0,0,0,0,0,0,0,0,0,0,0,0,0,0,0,0,0,0,0,0,0,0,0,0,0,0,0,0,0,0,0,0,0,0,0,0,0,0,0,0,0,0,0,6.485,6.4851,0,6.4958,6.496,6.4961,6.4933,6.4931,6.4929,6.4927,6.5032,6.5036,6.5041,0,0,0,0,0,0,0,0,0,0,0,0,0,6.4615,6.4619,6.485,6.4851,6.4853,6.4958,6.496,6.4961,6.4933,6.4931,6.4928,6.4926,6.503,6.5036,6.5042,0,0,0,0,0,0,0,0,0,0,0,0,0,6.4719,6.4621,6.485,6.4852,6.4853,6.4958,6.496,6.4961,6.4934,6.4931,6.4927,6.4924,6.5028,6.5035,6.5042,6.515,0,0,6.5064,6.5067,0,0,0,0,0,0,0,0,6.4713,6.4728,6.485,6.4852,6.4853,6.4929,6.4915,6.5025,6.4935,6.4903,6.4927,6.4923,6.5,6.5009,6.5036,6.5155,6.516,6.5065,6.5069,6.5072,6.5074,0,0,0,0,0,0,0,6.4706,6.4723,6.4892,6.4852,6.4854,6.4846,6.4857,6.4936,6.4968,6.4905,6.4904,6.4917,6.5,6.5029,6.5038,6.5161,6.5065,6.5071,6.5075,6.5078,6.5377,6.5381,0,0,0,0,0,0,6.4698,6.4717,6.4889,6.4896,6.4774,6.4853,6.4865,6.4908,6.4967,6.4973,6.492,6.4915,6.5019,6.503,6.5042,6.5175,6.5072,6.5079,6.5083,6.5374,6.5378,6.5382,0,0,0,0,0,0,6.4693,6.4714,6.4885,6.4806,6.4827,6.486,6.4908,6.4912,6.4941,6.4978,6.4983,6.4944,6.5017,6.5032,6.5125,6.5178,6.5082,6.5089,6.537,6.5375,6.538,6.5441,0,0,0,0,0,0,6.4687,6.4712,6.4755,6.4807,6.4832,6.4967,6.4911,6.4916,6.4954,6.495,6.5002,6.5008,6.5015,6.5114,6.5132,6.5187,6.5094,6.5365,6.5372,6.5378,6.5434,6.5448,6.5459,0,0,0,0,0,6.4678,6.4765,6.4757,6.4778,6.4885,6.497,6.4984,6.4993,6.4958,6.5001,6.5025,6.5006,6.5169,6.5124,6.5144,6.5201,6.5362,6.537,6.5378,6.5429,6.5445,6.5459,0,0,0,0,0,0,6.4715,6.4772,6.4763,6.487,6.4916,6.4965,6.5019,6.5009,6.5064,6.5057,6.5064,6.5076,6.5172,6.5195,6.5144,6.531,6.526,6.5273,6.5292,6.5308,6.532,6.5314,6.51,0,0,0,0,0,6.4736,6.4802,6.4847,6.4937,6.4961,6.4986,6.5023,6.5027,6.5073,6.5092,6.5122,6.5167,6.5229,6.5269,6.5327,6.5437,6.5449,6.5486,6.5499,6.5509,6.552,6.5583,6.5601,6.5409,6.5409,6.5409,0,0,6.4779,6.4818,6.4859,6.4945,6.4981,6.5049,6.5002,6.5075,6.5125,6.5102,6.5194,6.5217,6.5267,6.537,6.5417,6.5393,6.5576,6.5519,6.5527,6.5533,6.5593,6.5611,6.5627,6.5415,6.5414,6.5413,0,0,6.4893,6.4928,6.5009,6.5047,6.5103,6.5119,6.5139,6.5191,6.5207,6.5299,6.5284,6.5342,6.5448,6.5486,6.5518,6.5649,6.5635,6.5667,6.5734,6.5794,6.581,6.5823,6.5873,6.589,6.5678,6.5678,6.5678,0,6.4939,6.5042,6.5051,6.5126,6.5166,6.515,6.5232,6.5267,6.5339,6.5366,6.5338,6.5473,6.5505,6.5618,6.565,6.5676,6.5699,6.5663,6.5807,6.5821,6.5833,6.5881,6.5899,6.5682,6.5682,6.5681,6.5681,0,6.5097,6.5169,6.5226,6.53,6.5345,6.5423,6.5443,6.5488,6.5487,6.5507,6.5601,6.564,6.5708,6.5734,6.5732,6.5848,6.5831,6.5805,6.5756,6.5855,6.59,6.5918,6.5688,6.5686,6.5685,6.5684,0,0,6.5237,6.5316,6.5338,6.5372,6.5434,6.5489,6.5566,6.5635,6.5674,6.5723,6.579,6.588,6.5858,6.5895,6.5897,6.5951,6.6056,6.5918,6.5919,6.5945,6.6188,6.621,6.623,6.6045,6.6049,6.6052,6.6185,0,6.5359,6.5498,6.551,6.5635,6.5702,6.569,6.5757,6.5802,6.5823,6.5882,6.5903,6.5969,6.5932,6.5955,6.6007,6.6032,6.6105,6.6022,6.6108,6.6111,6.6099,6.6253,6.6276,6.64,6.6202,6.6205,6.6207,0,6.5519,6.5578,6.5711,6.5767,6.5795,6.5856,6.5922,6.5978,6.6029,6.604,6.6084,6.608,6.6159,6.6105,6.6215,6.6159,6.6194,6.6211,6.6216,6.6227,6.6167,6.627,6.6439,6.6459,6.6234,6.6232,6.623,0,6.5613,6.5724,6.5819,6.5848,6.5914,6.5958,6.5987,6.6035,6.6076,6.6133,6.616,6.6223,6.6259,6.6308,6.6321,6.628,6.6432,6.6378,6.6444,6.6444,6.6479,6.6477,6.6658,6.6497,6.6496,6.6496,6.6496,0,6.5749,6.5832,6.5863,6.5921,6.6014,6.6025,6.6116,6.6142,6.6185,6.6248,6.6239,6.6298,6.6311,6.6372,6.6382,6.6474,6.6489,6.6501,6.6503,6.6503,6.6503,6.6528,6.6521,6.6501,6.65,6.6499,6.6498,0,6.587,6.5893,6.5997,6.6052,6.6068,6.6134,6.618,6.6237,6.6256,6.6337,6.6356,6.6386,6.6459,6.6477,6.6561,6.6568,6.6677,6.6669,6.6662,6.6662,6.6729,6.6723,6.6935,6.6965,6.6781,6.6783,6.6784,0,6.5957,6.6021,6.6084,6.6127,6.6159,6.6228,6.6272,6.6285,6.6331,6.6395,6.6444,6.6515,6.6574,6.669,6.6719,6.6784,6.678,6.685,6.6789,6.6789,6.6785,6.6782,6.679,6.6862,6.6864,6.6865,6.6866,0,6.611,6.6119,6.6184,6.6254,6.6307,6.6361,6.6413,6.6448,6.6469,6.652,6.6596,6.6642,6.6731,6.6802,6.6869,6.6897,6.6887,6.6885,6.6905,6.6907,6.6901,6.6909,6.6696,6.6881,6.6879,6.6878,6.6877,6.6877,6.6219,6.6276,6.6331,6.6404,6.6445,6.6495,6.6552,6.658,6.6644,6.672,6.6723,6.6806,6.6856,6.6945,6.6977,6.7041,6.702,6.7047,6.7055,6.7062,6.707,6.6889,6.7053,6.7052,6.7052,6.7052,6.7051,0,6.6374,6.641,6.6476,6.6552,6.6609,6.6596,6.6653,6.6702,6.6776,6.6825,6.6883,6.6971,6.7041,6.7077,6.7146,6.7191,6.7188,6.7209,6.7207,6.7215,6.7083,6.7061,6.7211,6.7211,6.7211,6.7211,6.7211,6.7211,6.6462,6.6561,6.6577,6.6696,6.6729,6.6813,6.6848,6.6893,6.6933,6.7033,6.7092,6.7116,6.7159,6.7233,6.7296,6.7305,6.7332,6.7357,6.7363,6.724,6.7224,6.7208,6.7188,6.7362,6.7362,6.749,6.7491,6.7492]}]]